This demonstration page uses our WeatherBlox Daily Observations layout. Learn more.

41.55636, -103.73856

Hourly Observations for May 3, 2018

Temp ( °F °C ) Dew Point ( °F °C ) Humidity (%) Winds ( mph kmh ) Pressure ( in mb ) Visibility ( mi km ) Precip ( " mm )
12:53 am 00:53 Cloudy 50 10 49 9.4 96 96 NNW 3 6 29.91 1013 10 16.09344 0.001 0.001
1:53 am 01:53 Cloudy with Light Rain 49 9.4 47 8.3 93 93 E 7 11 29.88 1012 10 16.09344 0.02 0.508
2:53 am 02:53 Cloudy 48 8.9 48 8.9 100 100 ENE 9 15 29.85 1011 10 16.09344 0.001 0.001
3:32 am 03:32 Mostly Cloudy 48 9 48 9 100 100 NE 8 13 29.91 1013 10 16.09344 0 0
3:40 am 03:40 Partly Cloudy 48 9 48 9 100 100 NE 8 13 29.85 1011 10 16.09344 0 0
3:53 am 03:53 Mostly Clear 48 8.9 48 8.9 100 100 NNE 8 13 29.83 1010 10 16.09344 0 0
4:53 am 04:53 Cloudy 48 8.9 47 8.3 96 96 Calm 29.83 1010 10 16.09344 0 0
5:01 am 05:01 Cloudy 48 8.9 48 8.9 100 100 SE 3 6 29.91 1013 10 16.09344 0 0
5:39 am 05:39 Cloudy with Light Rain 48 8.9 48 8.9 100 100 Calm 29.91 1013 8 12.874752 0.02 0.508
5:53 am 05:53 Cloudy with Light Rain 48 8.9 48 8.9 100 100 Calm 29.85 1011 8 12.874752 0.02 0.508
6:53 am 06:53 Cloudy with Light Rain 48 8.9 48 8.9 100 100 NNW 7 11 29.85 1011 7 11.265408 0.04 1.016
7:53 am 07:53 Cloudy with Light Rain 48 8.9 48 8.9 100 100 NW 5 7 29.88 1012 5 8.04672 0.03 0.762
8:09 am 08:09 Cloudy with Rain 48 8.9 48 8.9 100 100 NW 7 11 29.91 1013 4 6.437376 0.02 0.508
8:49 am 08:49 Cloudy with Rain 48 9 48 9 100 100 NW 3 6 29.91 1013 3 4.828032 0.1 2.54
8:53 am 08:53 Cloudy with Light Rain 49 9.4 49 9.4 100 100 NW 3 6 29.91 1013 4 6.437376 0.1 2.54
9:11 am 09:11 Cloudy with Rain 49 9.4 49 9.4 100 100 Calm 29.91 1013 3 4.828032 0.04 1.016
9:18 am 09:18 Cloudy with Rain 49 9.4 49 9.4 100 100 Calm 29.91 1013 2.5 4.02336 0.06 1.524
9:42 am 09:42 Cloudy with Light Rain 50 10 48 9 94 94 N 3 6 29.91 1013 4 6.437376 0 0
9:53 am 09:53 Cloudy with Light Rain 50 10 49 9.4 96 96 N 7 11 29.91 1013 6 9.656064 0.13 3.302
10:34 am 10:34 Cloudy with Light Rain 52 11 48 9 88 88 N 8 13 29.91 1013 9 14.484096 0 0
10:53 am 10:53 Cloudy with Light Rain 51 10.6 50 10 96 96 N 6 9 29.91 1013 9 14.484096 0.05 1.27
11:48 am 11:48 Cloudy with Light Rain 52 11 50 10 94 94 N 3 6 29.91 1013 10 16.09344 0 0
11:53 am 11:53 Cloudy with Light Rain 52 11.1 50 10 93 93 Calm 29.91 1013 10 16.09344 0.04 1.016
12:53 pm 12:53 Cloudy 53 11.7 50 10 89 89 E 12 19 29.94 1014 10 16.09344 0.001 0.001
1:53 pm 13:53 Cloudy 55 12.8 49 9.4 80 80 ESE 9 15 29.94 1014 10 16.09344 0.001 0.001
2:20 pm 14:20 Cloudy with Light Rain 55 13 48 9 77 77 E 8 13 29.91 1013 10 16.09344 0 0
2:48 pm 14:48 Mostly Cloudy 57 14 48 9 72 72 E 10 17 29.88 1012 10 16.09344 0 0
2:53 pm 14:53 Mostly Cloudy 57 13.9 48 8.9 72 72 N 7 11 29.94 1014 10 16.09344 0.001 0.001
3:19 pm 15:19 Mostly Cloudy with Nearby Thunderstorms 58 14.4 49 9.4 72 72 SE 9 15 29.88 1012 10 16.09344 0.001 0.001
3:28 pm 15:28 Cloudy with Light Thunderstorms 55 13 48 9 77 77 N 7 11 29.91 1013 10 16.09344 0 0
3:38 pm 15:38 Cloudy with Heavy Thunderstorms 52 11 48 9 88 88 E 6 9 29.97 1015 1.75 2.816352 0 0
3:42 pm 15:42 Cloudy with Light Thunderstorms 52 11 50 10 94 94 SE 6 9 29.97 1015 3 4.828032 0 0
3:53 pm 15:53 Mostly Cloudy 55 12.8 51 10.6 87 87 SSE 7 11 29.94 1014 10 16.09344 0.2 5.08
4:53 pm 16:53 Sunny 57 13.9 50 10 78 78 N 5 7 29.94 1014 10 16.09344 0 0
5:03 pm 17:03 Sunny with Nearby Thunderstorms 57 13.9 49 9.4 74 74 SSW 3 6 29.88 1012 10 16.09344 0 0
5:18 pm 17:18 Mostly Sunny 55 13 48 9 77 77 SW 5 7 29.94 1014 10 16.09344 0 0
5:40 pm 17:40 Mostly Cloudy with Nearby Thunderstorms 56 13.3 49 9.4 77 77 SSW 7 11 29.94 1014 10 16.09344 0.001 0.001
5:53 pm 17:53 Cloudy with Thunderstorms 54 12.2 50 10 87 87 WSW 8 13 30 1016 3 4.828032 0.02 0.508
6:13 pm 18:13 Cloudy with Heavy Thunderstorms 49 9.4 49 9.4 100 100 NW 25 41 30.03 1017 2 3.218688 0.07 1.778
6:16 pm 18:16 Cloudy with Heavy Thunderstorms 48 9 48 9 100 100 NW 23 37 30.03 1017 1.75 2.816352 0 0
6:25 pm 18:25 Cloudy with Light Thunderstorms 50 10 N/A N/A NNW 15 24 30.03 1017 3 4.828032 0.15 3.81
6:53 pm 18:53 Cloudy 52 11 N/A N/A E 5 7 30 1016 10 16.09344 0.2 5.08
7:53 pm 19:53 Mostly Sunny 50 10 N/A N/A WSW 9 15 30.03 1017 10 16.09344 0 0
8:53 pm 20:53 Clear 46 8 N/A N/A NW 5 7 30.06 1018 10 16.09344 0 0
9:53 pm 21:53 Clear 45 7 N/A N/A NW 7 11 30.09 1019 10 16.09344 0 0
10:53 pm 22:53 Clear 45 7.2 45 7.2 100 100 NNW 6 9 30.12 1020 10 16.09344 0 0
11:53 pm 23:53 Clear 45 7.2 44 6.7 97 97 NW 8 13 30.12 1020 10 16.09344 0 0

Powered by AerisWeather